Tracking 29892 objects as of 21-Nov-2024
HD Live streaming from Space Station
objects crossing your sky now

STARLINK-6357

Track STARLINK-6357 now!
10-day predictions
STARLINK-6357 is classified as:


NORAD ID: 56783
Int'l Code: 2023-078S
Perigee: 577.1 km
Apogee: 581.2 km
Inclination: 70.0 °
Period: 96.1 minutes
Semi major axis: 6950 km
RCS: Unknown
Launch date: May 31, 2023
Source: United States (US)
Launch site: AIR FORCE WESTERN TEST RANGE (AFWTR)
Your satellite tracking list
Your tracking list is empty




NASA's NSSDC Master Catalog

Two Line Element Set (TLE):
1 56783U 23078S   24325.77484591  .00000107  00000-0  16777-4 0  9990
2 56783  70.0000  79.4456 0002950 268.0521  92.0300 14.98337020 82183
Source of the keplerian elements: AFSPC